Regional Weather Roundup
Issued by NWS San Angelo, TX

Home | Current Version | Previous Version | Text Only | Print | Product List | Glossary On
Versions: 1 2 3 4 5 6 7 8 9 10 11 12 13 14 15 16 17 18 19 20 21 22 23 24 25 26 27 28 29 30 31 32 33 34 35 36 37 38 39 40 41 42 43 44 45 46 47 48 49 50
000
ASUS44 KSJT 230810
RWRSJT
WEST CENTRAL TEXAS REGIONAL WEATHER ROUNDUP
NATIONAL WEATHER SERVICE SAN ANGELO TX
200 AM CST TUE JAN 23 2018

NOTE: "FAIR" INDICATES FEW OR NO CLOUDS BELOW 12,000 FEET WITH NO
SIGNIFICANT WEATHER AND/OR OBSTRUCTIONS TO VISIBILITY.

TXZ049-054-064>066-071>073-076>078-098-099-113-114-127-128-139-140-
154-155-168>170-230900
...LOCATIONS ACROSS WEST CENTRAL TEXAS...

CITY           SKY/WX    TMP DP  RH WIND       PRES   REMARKS
SAN ANGELO     CLOUDY    26  10  50 W7        30.20R WCI  18
ABILENE        CLOUDY    29  14  53 CALM      30.18F
DYESS AFB      CLOUDY    28  11  48 SW3       30.18S
JUNCTION       CLEAR     27  15  61 W3        30.21R
SWEETWATER     CLOUDY    38   8  29 SW10      30.20F WCI  31
BROWNWOOD      CLOUDY    25  10  54 CALM      30.19S
COLEMAN          N/A     34  13  41 NW7       30.18S WCI  28
SONORA         CLOUDY    21  10  63 CALM      30.24S
OZONA          FAIR      23  12  63 CALM      30.22F
BRADY          NOT AVBL
$$

TEXAS PANHANDLE/OKLAHOMA PANHANDLE

CITY           SKY/WX    TMP DP  RH WIND       PRES   REMARKS
AMARILLO       CLOUDY    23   3  42 W6        30.17F WCI  16
BORGER         CLEAR     28   3  34 W6        30.18S WCI  22
CANADIAN       CLEAR     32  11  41 SW5       30.17S WCI  27
DALHART        CLEAR     11  -1  58 NW7       30.17S WCI   0
DUMAS          CLOUDY    18   0  46 W8        30.16S WCI   8
GUYMON         NOT AVBL
HEREFORD       CLOUDY    18   4  54 MISG      30.18S
PAMPA          CLOUDY    28   5  38 NW8       30.17S WCI  20
PERRYTON       CLEAR     24  10  55 W10       30.14S WCI  14
$$

SOUTHERN PANHANDLE/SOUTH PLAINS/ROLLING PLAINS

CITY           SKY/WX    TMP DP  RH WIND       PRES   REMARKS
LUBBOCK        PTCLDY    24  -1  33 NW5       30.17S WCI  18
SNYDER         CLOUDY    37   6  26 CALM      30.19S
CHILDRESS      CLEAR     29   5  36 NW9       30.19S WCI  20
SEMINOLE       MOSUNNY   27   3  36 NW8       30.19S WCI  18
$$

PERMIAN BASIN

CITY           SKY/WX    TMP DP  RH WIND       PRES   REMARKS
MIDLAND        CLOUDY    30   6  36 N3        30.18F
ODESSA         CLOUDY    32   6  33 NW6       30.18F WCI  26
WINK           PTCLDY    26   3  37 NW3       30.19S
$$

FAR WEST/SOUTHWEST MOUNTAINS/TRANS PECOS

CITY           SKY/WX    TMP DP  RH WIND       PRES   REMARKS
ALPINE         CLOUDY    25   2  37 SW6       30.26S WCI  18
DRYDEN           N/A    N/A N/A N/A NW5       30.19S
EL PASO        PTCLDY    36   7  29 N5        30.19S WCI  32
FORT STOCKTON  CLOUDY    34   6  31 SW8       30.20S WCI  27
GUADALUPE PASS PTCLDY    36   3  25 NE10      30.20R WCI  28
MARFA            N/A     20   2  45 MISG        N/A
PECOS          CLOUDY    24   3  39 CALM      30.21S
$$

DALLAS/FORT WORTH METROPLEX

CITY           SKY/WX    TMP DP  RH WIND       PRES   REMARKS
DFW AIRPORT    CLEAR     46  19  34 NW12      30.13F
FTW MEACHAM    CLEAR     39  19  44 NW6       30.15F WCI  35
DAL-EXECUTIVE  CLEAR     60  21  22 W7        30.13F
GRAND PRAIRIE  CLEAR     43  19  38 W5        30.17S
ADDISON        CLEAR     41  22  48 NW3       30.16S
MESQUITE       SUNNY     40  23  51 W5        30.15S WCI  36
LANCASTER      SUNNY     37  22  54 W7        30.16S WCI  32
$$

NORTH CENTRAL TEXAS

CITY           SKY/WX    TMP DP  RH WIND       PRES   REMARKS
SHRMAN/DENISON SUNNY     34  21  59 W7        30.15R WCI  28
GAINESVILLE    CLEAR     37  17  43 NW7       30.17R WCI  32
BRIDGEPORT     SUNNY     36  15  42 SW7       30.18S WCI  30
DENTON         CLEAR     28  20  71 NW6       30.16R WCI  22
WAXAHACHIE     SUNNY     39  22  51 W6        30.16S WCI  34
GRANBURY       SUNNY     33  21  62 CALM      30.19S
$$

WESTERN NORTH TEXAS

CITY           SKY/WX    TMP DP  RH WIND       PRES   REMARKS
WICHITA FALLS  CLEAR     34  14  43 W10       30.17R WCI  26
VERNON         SUNNY     33   2  28 NW8       30.20R WCI  25
BRECKENRIDGE   SUNNY     31  18  59 S5        30.19S WCI  26
COMANCHE       CLOUDY    41  14  32 NW6       30.18R WCI  38
$$

CENTRAL AND SOUTH CENTRAL TEXAS

CITY           SKY/WX    TMP DP  RH WIND       PRES   REMARKS
AUSTIN/BERGSTM CLEAR     34  28  79 W3        30.19S
WACO           CLEAR     34  21  59 N3        30.17R
HILLSBORO      SUNNY     37  21  53 N6        30.16R WCI  32
TEMPLE         CLEAR     34  21  59 SW3       30.18R
KILLEEN-GRAY   CLEAR     33  17  51 W3        30.16S
FORT HOOD      CLEAR     39  17  41 CALM      30.14R
GEORGETOWN     CLEAR     33  22  63 SW3       30.20S
LAGO VISTA     FAIR      43  23  44 MISG      30.18S
SAN MARCOS     CLEAR     33  22  63 NW7       30.21R WCI  27
NEW BRAUNFELS  CLEAR     35  26  69 NW8       30.19S WCI  29
RANDOLPH AFB   CLOUDY    35  26  70 NW10      30.20S WCI  27
SAN ANTONIO    CLEAR     36  25  64 NW7       30.21S WCI  30
STINSON        CLOUDY    37  29  72 CALM      30.19S
PLEASANTON     NOT AVBL
LA GRANGE      NOT AVBL
GIDDINGS       SUNNY     36  29  77 CALM      30.19S
$$

EAST TEXAS

CITY           SKY/WX    TMP DP  RH WIND       PRES   REMARKS
PARIS          CLEAR     42  23  46 NW12      30.11R WCI  36
CLARKSVILLE    NOT AVBL
TYLER          CLEAR     45  23  42 NW7       30.12R
LONGVIEW       CLEAR     41  29  62 W9        30.09S WCI  35
PALESTINE      SUNNY     32  28  86 CALM      30.15S
NACOGDOCHES    CLEAR     33  27  78 CALM      30.13R
$$

TEXAS HILL COUNTRY AND EDWARDS PLATEAU

CITY           SKY/WX    TMP DP  RH WIND       PRES   REMARKS
LLANO          SUNNY     30  19  64 CALM      30.23R
HORSESHOE BAY  FAIR      31  23  72 CALM      30.19S
KERRVILLE      CLEAR     27  21  77 CALM      30.21S
FREDERICKSBRG  CLEAR     30  17  60 W3        30.20S
ROCKSPRINGS      N/A    N/A N/A N/A MISG        N/A
HONDO          CLOUDY    31  18  58 N9        30.21S WCI  23
UVALDE         CLOUDY    37  20  51 N5        30.23S WCI  33
DEL RIO        CLEAR     34  23  64 N3        30.22R
$$

SOUTHEAST TEXAS

CITY           SKY/WX    TMP DP  RH WIND       PRES   REMARKS
COLLEGE STN    CLEAR     36  28  73 CALM      30.17S
CALDWELL       SUNNY     40  22  49 NW3       30.18S
CROCKETT       SUNNY     30  27  86 CALM      30.17S
BRENHAM        CLOUDY    41  28  60 CALM      30.19R
HUNTSVILLE     CLEAR     39  27  62 CALM      30.16R
CONROE         CLOUDY    33  31  92 CALM      30.17R
HOUSTON BUSH   CLOUDY    42  35  76 W3        30.17R
HOUSTON HOBBY  FAIR      44  35  70 W3        30.16F
PERLAND        FAIR      43  38  82 S3        30.19R
WHARTON        PTSUNNY   42  35  75 CALM      30.19S
$$

THE UPPER TEXAS COAST

CITY           SKY/WX    TMP DP  RH WIND       PRES   REMARKS
ORANGE         FAIR      42  36  79 NW3       30.17R
PORT ARTHUR    FAIR      42  34  73 W3        30.15R
GALVESTON      FAIR      54  36  50 NW6       30.17S
ANGLETON       FAIR      43  32  65 CALM      30.18R
BAY CITY       FAIR      44  36  72 CALM      30.18S
$$

TEXAS COASTAL BEND, RIO GRANDE PLAINS DEEP SOUTH TEXAS

CITY           SKY/WX    TMP DP  RH WIND       PRES   REMARKS
VICTORIA       CLOUDY    41  29  62 N7        30.19R WCI  36
BEEVILLE       FAIR      46  27  47 N5        30.19S
ROCKPORT       CLEAR     40  38  93 CALM      30.19R
PORT ARANSAS   NOT AVBL
PORT LAVACA    MOSUNNY   44  29  57 CALM      30.20S
CORPUS CHRISTI MOCLDY    40  29  64 CALM      30.20R
KINGSVILLE NAS PTCLDY    45  31  58 NW6       30.20R
COTULLA        CLOUDY    42  24  49 N5        30.20S WCI  39
LAREDO         PTCLDY    42  30  62 SE3       30.21S
BROWNSVILLE    FAIR      56  45  66 N6        30.18R
PORT ISABEL    FAIR      51  46  83 N7        30.17R
HEBBRONVILLE   MOSUNNY   45  25  44 N5        30.21S
MCALLEN        PTCLDY    57  34  41 N6        30.20R
WESLACO        MOCLDY    50  35  55 N3        30.18F
FALFURRIAS     CLOUDY    46  34  62 CALM      30.20S
EDINBURG       MOSUNNY   49  36  61 N3        30.20S
$$




USA.gov is the U.S. government's official web portal to all federal, state and local government web resources and services.